Regional Weather Roundup
Issued by NWS

Home | Current Version | Previous Version | Graphics & Text | Print | Product List | Glossary On
Versions: 1 2 3 4 5 6 7 8 9 10 11 12 13 14 15 16 17 18 19 20 21 22 23 24 25 26 27 28 29 30 31 32 33 34 35 36 37 38 39 40 41 42 43 44 45 46 47 48 49 50
000
ASUS43 KLMK 192010
RWRKY
KENTUCKY REGIONAL WEATHER ROUNDUP
NATIONAL WEATHER SERVICE LOUISVILLE KY
400 PM EDT TUE SEP 19 2017

NOTE "FAIR" INDICATES FEW OR NO CLOUDS BELOW 12,000 FEET
WITH NO SIGNIFICANT WEATHER AND/OR OBSTRUCTIONS TO VISIBILITY.

KYZ001>023-026-027-061>063-070>075-192100-
WESTERN AND SOUTH CENTRAL KENTUCKY

CITY           SKY/WX    TMP DP  RH WIND       PRES   REMARKS
PADUCAH        MOSUNNY   85  68  56 S5        29.89F
HENDERSON      PTSUNNY   84  68  58 CALM      29.91F
OWENSBORO      PTSUNNY   83  69  62 SW7       29.91F
HOPKINSVILLE   MOSUNNY   85  70  60 S3        29.91F HX  90
BOWLING GREEN  SUNNY     82  72  71 E7        29.93F
GLASGOW        MOSUNNY   79  66  64 S7        29.95F
$$

KYZ024-025-028>034-038-045-046-053-192100-
NORTH CENTRAL KENTUCKY

CITY           SKY/WX    TMP DP  RH WIND       PRES   REMARKS
LOUISVILLE/SDF CLOUDY    76  68  76 S6        29.94F
LOUISVILLE/LOU CLOUDY    74  70  87 SE5       29.95F
FORT KNOX      PTSUNNY   77  68  73 S5        29.92F
$$

KYZ035>037-039>044-047>052-055>060-089>105-192100-
NORTHEAST KENTUCKY

CITY           SKY/WX    TMP DP  RH WIND       PRES   REMARKS
LEXINGTON      MOSUNNY   77  68  73 VRB5      29.96F
COVINGTON      CLOUDY    76  68  76 CALM      29.95F
FRANKFORT      CLOUDY    75  66  73 CALM      29.95F
$$

KYZ054-064>069-076>088-106>120-192100-
SOUTHEAST KENTUCKY

CITY           SKY/WX    TMP DP  RH WIND       PRES   REMARKS
JACKSON        CLOUDY    69  67  93 CALM      29.99S
LONDON         MOSUNNY   82  63  52 S5        29.97S
SOMERSET       PTSUNNY   77  66  69 CALM      29.98F
MIDDLESBORO    CLOUDY    80  67  63 S5        29.97F
MONTICELLO     CLOUDY    77  70  79 W15       29.99F
$$




USA.gov is the U.S. government's official web portal to all federal, state and local government web resources and services.